User: anonymous   Login
Location: Carri�res
(48.9069°N, 2.1792°E)
Time: 00:26:06
(UTC+00:00)
Language:

Cosmos 2228 - Orbit

View from above orbital plane
View from above orbital plane
View from above satellite
View from above satellite

Ground track
Ground track

The orbit data is extracted from the following two-line orbital elements,

1 22286U 92094A   21104.53205078  .00000218  00000-0  20817-4 0  9995
2 22286  82.5180 135.7552 0021729 157.0396 203.1798 14.88258016509227
Epoch (UTC): 14 April 2021 12:46:09
Eccentricity: 0.0021729
inclination: 82.5180°
perigee height: 588 km
apogee height: 618 km
right ascension of ascending node: 135.7552°
argument of perigee: 157.0396°
revolutions per day: 14.88258016
mean anomaly at epoch: 203.1798°
orbit number at epoch: 50922

The dashed part of the orbit path shows where the satellite is in the earth's shadow,  

DLR